COSMOS 1624

Satellite information

Favourite Embed

Satellite Type and Status

PAYLOADIN ORBIT

Key statistics

Satellite COSMOS 1624 at a glance.

Uptime

14835

Days in orbit

Revolutions

≈ 14.3

Per day

Orbit

LEO

Low Earth Orbit

Inclination

74.0

Latest

Satellite identification and parameters

Extended collection of information and parameters for COSMOS 1624.

Object identification

Identified? True

Debris? False

Object name: COSMOS 1624

International designator: 1985-006A

Object number (NORAD): 15482

Object ID (CCSDS): 15482

Country: COMMONWEALTH OF INDEPENDENT STATES (CIS)

Current information (Y/N): Y

RCS size: LARGE

Orbital parameters

Period: 100.429 minutes

Inclination: 74.0444 deg

SMA: 7157.045 km

Apoapsis: 789.746 km

Periapsis: 768.074 km

RAAN: 8.4289 deg

Eccentricy: 0.00151401

Argument of periapsis: 319.5714 deg

Mean anomaly: 150.9815 deg

Mean motion: 14.33844882 rev/day

Mean motion (dot): 0.00000178 rev/day2

B* drag term: 0.000073405119 1/REarth

Two-line elements (TLE)

Creation date: Aug. 29, 2025, 2:15 a.m.

Reference frame: TEME

Reference center: EARTH

Epoch: Aug. 28, 2025, 7:12 p.m. UTC

TLE line 0: 0 COSMOS 1624

TLE line 1: 1 15482U 85006A 25240.80063573 .00000178 00000-0 73405-4 0 9993

TLE line 2: 2 15482 74.0444 8.4289 0015140 319.5714 150.9815 14.33844882122354

Live tracking on map

Real-time ground track for satellite COSMOS 1624.

In-orbit conjunctions

A list of the most updated potential collisions computed for object COSMOS 1624.

Target Orbit TCA Probability of collision Miss distance Type
CZ-6A DEB LEO 2025-06-16 13:53:09 0.0004269612 476.0 (m) DEBRIS
COSMOS 1275 DEB LEO 2025-05-21 01:37:06 0.0008152935 805.0 (m) DEBRIS
NOAA 16 DEB SSO 2025-01-18 23:41:17 0.0002290846 494.0 (m) DEBRIS
DMSP 5D-2 F13 DEB SSO 2025-01-08 09:20:22 0.0001397668 417.0 (m) DEBRIS
CZ-6A DEB SSO 2025-01-01 10:38:48 0.0002375919 349.0 (m) DEBRIS

Associated space launch

Military communications satellite

COSMOS 1624 was lifted into orbit during the mission ‘Kosmos-3M | Strela-2M 36’, on board a Kosmos-3M space rocket.

The launch took place on Jan. 17, 1985, 5:46 p.m. from 132/1 (132L).

For more information about the launch, click the button.

Launch to space Kosmos-3M | Strela-2M 36
Kosmos-3M | Strela-2M 36

Agency: N/A

Status: Launch Successful

Launch date: Jan. 17, 1985, 5:46 p.m. UTC

Rocket: Kosmos-3M

Launch pad: 132/1 (132L)

Location: Plesetsk Cosmodrome, Russian Federation

...

Latest news about this satellite

There are no fresh news available about this satellite. Check back as we update our databases every day.


Newsletter sign-up

Weekly statistics, charts and insights to help you stay on top of the space industry.